Regional Weather Roundup
Issued by NWS

Home | Current Version | Previous Version | Graphics & Text | Print | Product List | Glossary On
Versions: 1 2 3 4 5 6 7 8 9 10 11 12 13 14 15 16 17 18 19 20 21 22 23 24 25 26 27 28 29 30 31 32 33 34 35 36 37 38 39 40 41 42 43 44 45 46 47 48 49 50
761
ASUS43 KFSD 011310
RWRSD

WEATHER ROUNDUP FOR SOUTH DAKOTA
NATIONAL WEATHER SERVICE SIOUX FALLS SD
800 AM CDT SAT OCT 01 2016

NOTE: "FAIR" INDICATES FEW OR NO CLOUDS BELOW 12,000 FEET WITH NO
SIGNIFICANT WEATHER AND/OR OBSTRUCTIONS TO VISIBILITY.


SDZ001>005-009-010-012>017-011400-
NORTHWEST AND NORTH CENTRAL SOUTH DAKOTA

CITY           SKY/WX    TMP DP  RH WIND       PRES   REMARKS
BUFFALO          N/A     49  46  90 E6        29.93S
FAITH            N/A     51  46  83 SE14      29.98F
MOBRIDGE       MOCLDY    61  46  57 S16       29.99S
$$

SDZ012>016-024>037-041>051-057-063-072>074-011400-
SOUTHWEST AND SOUTH CENTRAL SOUTH DAKOTA

CITY           SKY/WX    TMP DP  RH WIND       PRES   REMARKS
RAPID CTY ARPT CLEAR     46  43  89 N3        30.00S
PIERRE         CLOUDY    58  45  62 SE12      30.02R
CUSTER         CLEAR     47  41  80 NW6       30.12S
ELLSWORTH AFB  CLEAR     53  47  80 N5        30.00S
PHILIP         MOCLDY    57  48  72 VRB6      29.99S
PINE RIDGE     CLEAR     53  47  79 S10       30.03S
WINNER         FAIR      57  45  64 S13       30.06S
$$

SDZ004>011-016>023-039-040-011400-
NORTHEAST SOUTH DAKOTA

CITY           SKY/WX    TMP DP  RH WIND       PRES   REMARKS
ABERDEEN       CLOUDY    51  47  86 SE12      30.10S
WATERTOWN      CLEAR     50  47  89 SE3       30.16R
BROOKINGS      CLEAR     44  43  96 CALM      30.16S
SISSETON         N/A     47  45  93 S7        30.15F
$$

SDZ017-020-022-023-036>040-048>070-011400-
SOUTHEAST SOUTH DAKOTA

CITY           SKY/WX    TMP DP  RH WIND       PRES   REMARKS
SIOUX FALLS    CLOUDY    53  50  89 CALM      30.17R
HURON          MOCLDY    48  47  96 SE10      30.11F
CHAMBERLAIN    CLOUDY    53  47  82 SE5       30.08S
MITCHELL       CLOUDY    46  44  93 SE7       30.14R
YANKTON        CLEAR     46  45  93 E3        30.14S VSB 1
$$

ABBREVIATIONS USED IN REMARKS
   TC - TEMPERATURE IN CELSIUS
  WCI - WIND CHILL INDEX
   HX - HEAT INDEX
  VSB - VISIBILITY





USA.gov is the U.S. government's official web portal to all federal, state and local government web resources and services.